Weather History for Lyndonville, VT

Change the Weather History Date:

Monday, September 10, 2012

  Actual Average (K1V4) Record (K1V4)
Temperature  
Mean Temperature 52 °F 62 °F  
Max Temperature 57 °F 73 °F 91 °F (1959)
Min Temperature 46 °F 52 °F 28 °F (1913)
Degree Days  
Heating Degree Days 14 4  
Month to date heating degree days 32  
Since 1 July heating degree days 82  
Cooling Degree Days 0 2  
Month to date cooling degree days 21  
Year to date cooling degree days 419  
Growing Degree Days 2 (Base 50)    
Moisture  
Dew Point 43 °F    
Average Humidity 73    
Maximum Humidity 91    
Minimum Humidity 56    
Precipitation  
Precipitation 0.00 in 0.11 in 3.02 in (1924)
Month to date precipitation 1.01  
Year to date precipitation 26.77  
Sea Level Pressure  
Sea Level Pressure 30.00 in    
Wind  
Wind Speed 4 mph (NW)    
Max Wind Speed 15 mph    
Max Gust Speed 22 mph    
Visibility 10 miles    
Events      
T = Trace of Precipitation, MM = Missing Value Source: NWS Daily Summary

Daily Weather History Graph

Daily Weather History Graph

Search for Another Location

Airport:

Trip Planner

Search our weather history database for the weather conditions in past years. The results will help you decide how hot, cold, wet, or windy it might be!

Date:

Astronomy

Sep. 10, 2012 Rise Set
Actual Time 6:21 AM EDT 7:07 PM EDT
Civil Twilight 5:52 AM EDT 7:36 PM EDT
Nautical Twilight 5:17 AM EDT 8:11 PM EDT
Astronomical Twilight 4:40 AM EDT 8:47 PM EDT
Moon 12:29 AM EDT (9/10) 3:44 PM EDT (9/10)
Length of Visible Light 13h 44m
Length of Day
12h 45m
Waning Crescent, 30% of the Moon is Illuminated
Sep 10
Waning Crescent
Sep 15
New
Sep 22
First Quarter
Sep 29
Full
Oct 8
Last Quarter

Hourly Weather History & Observations

Time (EDT) Temp. Dew Point Humidity Pressure Visibility Wind Dir Wind Speed Gust Speed Precip Events Conditions
12:15 AM 46.4 °F 43.2 °F 88% 29.93 in 10.0 mi Calm Calm - N/A   Clear
12:35 AM 47.1 °F 43.7 °F 88% 29.93 in 10.0 mi Calm Calm - N/A   Clear
12:55 AM 47.1 °F 44.1 °F 89% 29.93 in 10.0 mi Calm Calm - N/A   Clear
1:15 AM 46.0 °F 43.3 °F 90% 29.93 in 5.0 mi Calm Calm - N/A   Scattered Clouds
1:35 AM 47.5 °F 44.8 °F 90% 29.93 in 10.0 mi Calm Calm - N/A   Overcast
1:55 AM 47.7 °F 44.8 °F 90% 29.93 in 10.0 mi East 3.5 mph - N/A   Overcast
2:15 AM 47.5 °F 44.6 °F 90% 29.93 in 10.0 mi Calm Calm - N/A   Overcast
2:35 AM 47.8 °F 44.6 °F 89% 29.93 in 10.0 mi Calm Calm - N/A   Overcast
2:55 AM 48.2 °F 45.1 °F 89% 29.93 in 10.0 mi Calm Calm - N/A   Overcast
3:15 AM 48.4 °F 45.1 °F 89% 29.93 in 10.0 mi Calm Calm - N/A   Overcast
3:35 AM 48.7 °F 45.5 °F 89% 29.94 in 10.0 mi Calm Calm - N/A   Overcast
3:55 AM 48.2 °F 45.1 °F 89% 29.93 in 10.0 mi Calm Calm - N/A   Overcast
4:15 AM 48.4 °F 45.5 °F 90% 29.93 in 10.0 mi Calm Calm - N/A   Overcast
4:35 AM 47.7 °F 44.8 °F 90% 29.93 in 10.0 mi Calm Calm - N/A   Overcast
4:55 AM 46.6 °F 43.5 °F 89% 29.94 in 1.5 mi Calm Calm - N/A   Mostly Cloudy
5:15 AM 46.2 °F 43.5 °F 90% 29.93 in 0.8 mi Calm Calm - N/A   Overcast
5:35 AM 47.5 °F 45.0 °F 91% 29.93 in 10.0 mi Calm Calm - N/A   Overcast
5:55 AM 48.4 °F 45.7 °F 90% 29.94 in 10.0 mi Calm Calm - N/A   Overcast
6:15 AM 47.5 °F 44.6 °F 90% 29.95 in 5.0 mi Calm Calm - N/A   Overcast
6:35 AM 47.7 °F 45.0 °F 90% 29.95 in 10.0 mi Calm Calm - N/A   Overcast
6:55 AM 48.9 °F 46.2 °F 90% 29.95 in 10.0 mi Calm Calm - N/A   Overcast
7:15 AM 49.5 °F 46.6 °F 90% 29.96 in 10.0 mi Calm Calm - N/A   Overcast
7:35 AM 49.5 °F 46.6 °F 90% 29.97 in 10.0 mi Calm Calm - N/A   Overcast
7:55 AM 50.7 °F 47.5 °F 89% 29.97 in 10.0 mi Calm Calm - N/A   Overcast
8:15 AM 51.8 °F 47.3 °F 85% 29.97 in 10.0 mi Calm Calm - N/A   Overcast
8:35 AM 52.7 °F 48.2 °F 85% 29.97 in 10.0 mi WSW 3.5 mph - N/A   Mostly Cloudy
8:55 AM 53.2 °F 47.5 °F 81% 29.97 in 10.0 mi NW 5.8 mph - N/A   Overcast
9:15 AM 54.5 °F 47.1 °F 76% 29.98 in 10.0 mi WNW 5.8 mph - N/A   Mostly Cloudy
9:35 AM 54.5 °F 46.2 °F 74% 29.98 in 10.0 mi NW 8.1 mph - N/A   Overcast
9:55 AM 55.4 °F 45.7 °F 70% 29.98 in 10.0 mi WNW 11.5 mph - N/A   Overcast
10:15 AM 55.8 °F 46.4 °F 71% 29.99 in 10.0 mi NW 6.9 mph - N/A   Overcast
10:35 AM 55.9 °F 46.0 °F 69% 29.99 in 10.0 mi WNW 12.7 mph 17.3 mph N/A   Overcast
10:55 AM 54.5 °F 45.5 °F 72% 29.99 in 10.0 mi WNW 12.7 mph - N/A   Mostly Cloudy
11:15 AM 54.9 °F 44.6 °F 68% 30.00 in 10.0 mi NW 11.5 mph 18.4 mph N/A   Overcast
11:35 AM 55.4 °F 43.2 °F 63% 30.00 in 10.0 mi NW 10.4 mph 16.1 mph N/A   Overcast
11:55 AM 54.9 °F 43.0 °F 64% 30.00 in 10.0 mi WNW 11.5 mph 18.4 mph N/A   Overcast
12:15 PM 55.4 °F 42.8 °F 63% 30.00 in 10.0 mi NW 12.7 mph 18.4 mph N/A   Overcast
12:35 PM 55.0 °F 42.4 °F 63% 30.00 in 10.0 mi WNW 15.0 mph 20.7 mph N/A   Overcast
12:55 PM 57.0 °F 42.6 °F 59% 30.00 in 10.0 mi WNW 9.2 mph 16.1 mph N/A   Overcast
1:15 PM 55.8 °F 42.3 °F 60% 30.00 in 10.0 mi WNW 12.7 mph 18.4 mph N/A   Overcast
1:35 PM 55.9 °F 41.9 °F 59% 30.01 in 10.0 mi WNW 11.5 mph 17.3 mph N/A   Overcast
1:55 PM 55.8 °F 41.7 °F 59% 30.01 in 10.0 mi NW 11.5 mph - N/A   Overcast
2:15 PM 55.9 °F 40.8 °F 57% 30.01 in 10.0 mi NW 10.4 mph 21.9 mph N/A   Overcast
2:35 PM 56.3 °F 40.8 °F 56% 30.01 in 10.0 mi NW 13.8 mph 20.7 mph N/A   Overcast
2:55 PM 56.3 °F 40.8 °F 56% 30.01 in 10.0 mi WNW 9.2 mph 13.8 mph N/A   Overcast
3:15 PM 55.6 °F 40.1 °F 56% 30.01 in 10.0 mi WNW 9.2 mph - N/A   Overcast
3:35 PM 55.6 °F 40.3 °F 56% 30.01 in 10.0 mi NW 11.5 mph - N/A   Overcast
3:55 PM 55.2 °F 41.2 °F 59% 30.01 in 10.0 mi WNW 11.5 mph - N/A   Overcast
4:15 PM 55.0 °F 41.0 °F 59% 30.01 in 10.0 mi WNW 9.2 mph - N/A   Overcast
4:35 PM 55.0 °F 41.0 °F 59% 30.02 in 10.0 mi WNW 11.5 mph - N/A   Overcast
4:55 PM 54.9 °F 41.0 °F 60% 30.02 in 10.0 mi WNW 11.5 mph 18.4 mph N/A   Overcast
5:15 PM 54.5 °F 41.4 °F 61% 30.03 in 10.0 mi WNW 5.8 mph - N/A   Overcast
5:35 PM 54.5 °F 41.0 °F 60% 30.03 in 10.0 mi WNW 6.9 mph - N/A   Overcast
5:55 PM 54.5 °F 41.2 °F 61% 30.04 in 10.0 mi WNW 6.9 mph - N/A   Overcast
6:15 PM 54.5 °F 41.5 °F 62% 30.04 in 10.0 mi WNW 6.9 mph - N/A   Overcast
6:35 PM 54.3 °F 41.9 °F 63% 30.04 in 10.0 mi NW 8.1 mph - N/A   Overcast
6:55 PM 54.0 °F 41.7 °F 63% 30.05 in 10.0 mi WNW 4.6 mph - N/A   Overcast
7:15 PM 53.6 °F 41.2 °F 63% 30.05 in 10.0 mi NW 4.6 mph - N/A   Overcast
7:35 PM 53.6 °F 41.2 °F 63% 30.05 in 10.0 mi NW 4.6 mph - N/A   Overcast
7:55 PM 53.1 °F 41.0 °F 64% 30.06 in 10.0 mi NW 4.6 mph - N/A   Overcast
8:15 PM 52.7 °F 41.0 °F 64% 30.07 in 10.0 mi NW 3.5 mph - N/A   Overcast
8:35 PM 52.7 °F 41.2 °F 65% 30.07 in 10.0 mi NW 4.6 mph - N/A   Overcast
8:55 PM 52.0 °F 40.5 °F 65% 30.08 in 10.0 mi NW 4.6 mph - N/A   Overcast
9:15 PM 52.7 °F 40.1 °F 62% 30.08 in 10.0 mi NW 4.6 mph - N/A   Mostly Cloudy
9:35 PM 52.7 °F 40.1 °F 62% 30.08 in 10.0 mi NW 6.9 mph - N/A   Mostly Cloudy
9:55 PM 52.7 °F 40.1 °F 62% 30.09 in 10.0 mi NW 6.9 mph - N/A   Mostly Cloudy
10:15 PM 52.7 °F 40.3 °F 63% 30.09 in 10.0 mi NW 6.9 mph - N/A   Mostly Cloudy
10:35 PM 51.4 °F 40.1 °F 65% 30.09 in 10.0 mi NW 5.8 mph - N/A   Scattered Clouds
10:55 PM 49.8 °F 40.1 °F 69% 30.09 in 10.0 mi NW 5.8 mph - N/A   Clear
11:15 PM 49.1 °F 39.7 °F 70% 30.10 in 10.0 mi NW 5.8 mph - N/A   Scattered Clouds
11:35 PM 48.6 °F 39.4 °F 71% 30.10 in 10.0 mi NW 4.6 mph - N/A   Scattered Clouds
11:55 PM 48.0 °F 38.8 °F 71% 30.10 in 10.0 mi NW 4.6 mph - N/A   Scattered Clouds